This is the latest recevied weather packets stored in our database for station/object KC8JWT. If no packets are shown the sender has not sent any weather packets the latest 10 day(s).
| Time | Temp. | Humidity | Pressure | Rain* | Wind** | Luminosity | Snow |
|---|---|---|---|---|---|---|---|
| 1777847626 | 16.11° C | 44% | 1015.3 hPa | 0 mm | - | 105 W/m² | - |
| 1777847321 | 16.11° C | 43% | 1015.1 hPa | 0 mm | - | 116 W/m² | - |
| 1777847021 | 16.11° C | 41% | 1015.2 hPa | 0 mm | - | 129 W/m² | - |
| 1777846718 | 16.67° C | 43% | 1015 hPa | 0 mm | - | 133 W/m² | - |
| 1777846417 | 17.22° C | 41% | 1015.1 hPa | 0 mm | - | 149 W/m² | - |
| 1777846112 | 18.33° C | 40% | 1015.1 hPa | 0 mm | - | 155 W/m² | - |
| 1777845809 | 18.33° C | 40% | 1015.1 hPa | 0 mm | - | 251 W/m² | - |
| 1777845506 | 17.78° C | 40% | 1015.2 hPa | 0 mm | - | 296 W/m² | - |
| 1777845203 | 18.33° C | 40% | 1015.1 hPa | 0 mm | - | 338 W/m² | - |
| 1777844901 | 18.89° C | 40% | 1015.1 hPa | 0 mm | - | 350 W/m² | - |
| 1777844598 | 18.89° C | 40% | 1015.3 hPa | 0 mm | - | 402 W/m² | - |
| 1777844295 | 18.89° C | 38% | 1015.2 hPa | 0 mm | - | 410 W/m² | - |
| 1777843993 | 18.89° C | 39% | 1015.2 hPa | 0 mm | - | 419 W/m² | - |
| 1777843689 | 18.89° C | 39% | 1015.5 hPa | 0 mm | - | 419 W/m² | - |
| 1777843388 | 18.89° C | 40% | 1015.3 hPa | 0 mm | - | 431 W/m² | - |
| 1777843085 | 18.33° C | 39% | 1015.2 hPa | 0 mm | - | 468 W/m² | - |
| 1777842781 | 18.89° C | 40% | 1015.1 hPa | 0 mm | - | 491 W/m² | - |
| 1777842481 | 20° C | 40% | 1015.3 hPa | 0 mm | - | 500 W/m² | - |
| 1777842179 | 18.89° C | 40% | 1015.2 hPa | 0 mm | - | 481 W/m² | - |
| 1777841874 | 18.89° C | 42% | 1015.5 hPa | 0 mm | - | 483 W/m² | - |
| 1777841571 | 18.33° C | 39% | 1015 hPa | 0 mm | - | 526 W/m² | - |
| 1777841267 | 18.33° C | 39% | 1015.3 hPa | 0 mm | - | 532 W/m² | - |
| 1777840965 | 18.89° C | 40% | 1015.2 hPa | 0 mm | - | 556 W/m² | - |
| 1777840662 | 18.89° C | 43% | 1015.5 hPa | 0 mm | - | 557 W/m² | - |
| 1777840359 | 18.89° C | 41% | 1015.5 hPa | 0 mm | - | 561 W/m² | - |
* Rain latest hour (hover to see other rain measurements)
** Current wind speed in m/s (hover to see current wind gust speed)